    Orbital elements:
        C/2008 N1 (Holmes)
    Epoch 2009 Sept. 6.0 TT = JDT 2455080.5
    T 2009 Sept. 25.91496 TT                                MPC
    q   2.7834945            (2000.0)            P               Q
    z  +0.0010641      Peri.  100.81928     -0.20619670     -0.97770033
     +/-0.0000331      Node   357.47153     -0.73284754     +0.18126165
    e   0.9970380      Incl.  115.51887     +0.64839603     -0.10604850
    Residuals in seconds of arc
    080701 H55  0.0   0.2+    080729 J38  0.2+  1.0+    080826 104  0.3+  0.0
    080701 H55  0.1+  0.3+    080729 J38  0.3-  0.6+    080826 104  0.4+  0.1+
    080701 H55  0.3+  0.2+    080729 J38  0.1-  0.1-    080827 246  0.2+  0.1-
    080702 H55  0.7-  0.2+    080729 372  0.1-  0.4+    080827 246  0.1+  0.3-
    080702 H55  1.3-  1.0+    080729 372  0.1+  0.3+    080827 246  0.3+  0.3-
    080702 H55  1.3-  0.2-    080729 372  0.1-  0.0     080827 246  0.5+  0.2-
    080702 H55  0.2-  0.3+    080729 B51  0.0   0.2+    080827 246  0.4+  0.0
    080702 H55  0.0   0.3-    080730 B51 (2.2+  0.7-)   080827 246  0.3+  0.3-
    080702 H55  0.2+  0.1-    080803 941  0.1+  0.0     080827 215  0.1+  0.3+
    080702 658  0.6+  0.8+    080803 941  0.1+  0.1-    080827 215  0.1+  0.3+
    080702 G96  0.0   0.2+    080803 941  0.0   0.3-    080827 215  0.2+  0.3+
    080702 G96  0.0   0.0     080803 372  0.1+  0.4+    080828 B26  0.4+  0.4-
    080702 658  0.8+  0.7+    080803 372  0.4+  0.1+    080829 B26  0.1+  0.3-
    080702 G96  0.2+  0.3-    080805 H45  0.2-  0.1-    080829 H45  0.2+  0.3+
    080702 G96  0.2+  0.1-    080805 H45  0.2-  0.1-    080829 H45  0.0   0.1+
    080702 658  1.0+  0.7+    080805 H45  0.1-  0.3-    080829 H45  0.2+  0.0
    080703 F85  0.0   0.2+    080805 H45  0.5+  0.1+    080829 H45  0.5+  0.0
    080703 F85  0.2+  0.4-    080805 H45  0.6+  0.1-    080829 H45  0.4+  0.1-
    080703 F85  0.1-  1.2-    080805 H45  0.2+  0.1-    080829 H45  0.0   0.2-
    080704 J95  0.3+  0.9-    080805 118  1.3-  0.1+    080830 B37  0.3+  0.2+
    080704 J95  0.7-  0.9-    080805 118  0.5-  0.1-    080830 B37  0.0   0.0
    080704 J77  0.3+  0.4+    080807 H45  0.3+  0.0     080830 B37  0.5-  0.1+
    080704 J95  0.1-  0.5+    080807 H45  0.3-  0.1-    080830 213  0.3-  0.3-
    080705 204  0.1+  0.1+    080807 H45  0.5+  0.1+    080830 213  0.1+  0.1-
    080705 941  0.2+  0.4+    080807 H45  0.2+  0.1+    080830 213  0.3-  0.3-
    080705 941  0.4+  0.4+    080807 H45  0.5+  0.0     080831 H55  0.0   0.0
    080705 941  0.4+  0.2+    080807 H45  0.2-  0.1-    080831 H55  0.0   0.1-
    080705 941  0.3+  0.3+    080808 147  0.4-  0.6+    080831 H55  0.1+  0.1-
    080705 941  0.4+  0.4+    080808 J38  0.0   0.0     080831 J47  0.9+  0.1+
    080705 941  0.4+  0.5+    080808 J38  0.2+  0.1+    080831 J47  1.0+  0.0
    080705 J87  0.3-  0.7+    080808 J38 (2.9+  0.6-)   080831 J47  0.6+  0.7+
    080705 J87  0.1+  0.6-    080808 J38 (3.3+  0.8-)   080901 585 (0.3-  2.2+)
    080705 J87  0.2-  0.0     080809 H55  0.3-  0.1+    080901 585  0.0   0.5+
    080705 204  0.1+  0.3+    080809 H55  0.3-  0.2+    080901 585  0.3-  0.1+
    080705 734  0.1-  0.1+    080809 H55  0.1-  0.1+    080901 585  0.4-  0.1+
    080705 734  0.2+  0.2+    080809 H55  0.3-  0.0     080901 585  0.2+  0.2+
    080705 H55  0.0   0.1+    080809 H55  0.2-  0.2+    080901 585  0.2-  0.9+
    080705 H55  0.0   0.1+    080809 H45  0.3+  0.1-    080902 673  0.1+  0.2-
    080705 H55  0.1+  0.2+    080809 H45  0.2+  0.0     080902 673  0.2+  0.1-
    080706 204  0.3-  0.7-    080809 H45  0.0   0.2-    080902 673  0.2+  0.1+
    080706 204  0.0   0.2+    080809 H45  0.4+  0.2-    080902 673  0.3+  0.2+
    080706 H55  0.2+  0.0     080809 H45  0.5+  0.2-    080902 213  0.4-  0.1-
    080706 H55  0.1+  0.1-    080809 H45  0.3+  0.1-    080902 213  0.5-  0.2-
    080706 H55  0.0   0.1-    080809 900  0.2+  0.5-    080902 213  1.5-  0.2+
    080707 941  0.3-  0.5-    080809 900  1.0-  1.4-    080903 J40  0.9-  0.0
    080707 941  0.2-  0.4-    080810 372  0.1+  0.6+    080903 J40  0.5-  0.4-
    080707 941  0.2-  0.4-    080810 372  0.1-  0.5-    080903 J40  0.6-  0.8-
    080707 941  0.3-  0.3-    080810 372  0.2+  0.2+    080906 H45  0.1-  0.4-
    080707 850  1.2+  0.2+    080810 473  0.1+  0.3-    080906 H45  0.3+  0.4-
    080707 850  0.0   0.4-    080811 J47  0.2+  0.2+    080906 H45  0.0   0.3-
    080707 850  0.5-  0.3-    080811 J47  0.2+  0.2+    080906 H45  0.4+  0.4-
    080707 850  0.7+  0.7+    080811 J47  0.2+  0.0     080906 H45  0.0   0.4-
    080709 F65  0.0   0.1+    080816 H55  0.4-  0.0     080906 H45  0.1+  0.4-
    080710 215 (0.1-  2.2-)   080816 H55  0.5-  0.0     080907 704  0.4-  0.0
    080716 H55  0.1+  0.4+    080816 H55  0.4-  0.0     080907 704  0.6-  0.0
    080716 H55  0.1+  0.4+    080817 B37 (1.5-  2.0+)   080907 704  0.1+  0.3+
    080716 H55  0.5+  0.0     080817 B37  1.3-  1.1+    080907 704  0.0   0.0
    080717 H55  0.3-  0.3+    080817 B37 (3.6-  1.9-)   080907 704  0.0   0.9+
    080717 H55  0.2-  0.4+    080818 H55  0.1-  0.1+    080907 B37  0.5+  0.2-
    080717 H55  0.0   0.2+    080818 H55  0.0   0.4+    080907 B37  0.4-  0.3+
    080722 J95  0.1-  0.4+    080818 H55  0.2-  0.2+    080907 B37  0.3+  0.5+
    080722 J95  0.1+  0.4-    080818 H55  0.0   0.1+    080908 900  0.6+  0.2-
    080723 H55  0.7+  0.4-    080818 H55  0.0   0.2+    080908 900  1.0-  0.2+
    080723 H55  0.4+  0.2-    080818 118  0.8+  0.8-    080908 B26  0.8-  0.6+
    080723 H55  0.1+  0.2+    080818 118  0.2+  0.4-    080908 585  0.5-  0.3-
    080724 673  0.5+  0.5+    080821 900  0.6-  1.1-    080908 585  0.9+  0.1-
    080724 673  0.0   0.3+    080821 900 (0.2+  4.0-)   080908 585  0.2-  0.0
    080724 673  0.2+  0.3+    080822 461  0.2-  0.1+    080908 585  0.0   0.0
    080724 673  0.1-  0.4+    080822 461  0.1-  0.1+    080908 130  0.6+  0.4-
    080724 204  0.3+  0.5+    080822 461  0.1-  0.1+    080908 130  0.0   0.1+
    080725 204  0.0   0.2+    080822 461  0.3-  0.0     080908 130  0.2+  0.3+
    080726 372  0.1-  0.5+    080823 461  0.0   0.2+    080908 130  0.3+  0.7-
    080726 372  0.4-  0.7+    080823 461  0.0   0.1+    080909 246  0.3+  0.1-
    080726 A77 (1.8-  3.0+)   080823 461  0.3-  0.1+    080909 246  0.5+  0.2+
    080726 A77  0.4-  0.6+    080823 147  0.1+  0.3-    080909 246  0.2+  0.3-
    080726 A77  0.7+  0.2+    080823 147  0.1+  0.2-    080909 246  0.1+  0.2-
    080726 A77  0.0   0.3+    080823 147  0.2+  0.1-    080909 246  0.2+  0.0
    080727 372  0.2-  0.6+    080824 246  0.4+  0.0     080909 246  0.4+  0.0
    080728 703  0.6-  0.4+    080824 246  0.4+  0.2+    080909 246  0.4+  0.2-
    080728 703  0.7-  0.5-    080824 246  0.2+  0.2+    080909 J47  1.7-  0.2+
    080728 703  1.0-  1.9-    080824 246  0.1-  0.1-    080909 J47  0.5-  0.7+
    080728 703 (2.5-  0.5-)   080825 046  0.5-  0.0     080909 J47  0.2+  1.0+
    080728 703  0.2-  0.1-    080825 046  0.3-  0.4-    080910 J47  0.3+  0.6+
    080728 703  0.3+  0.5-    080825 046  0.3+  0.2-    080910 J47  0.2+  0.1+
    080728 703  0.2-  0.4-    080825 046  0.2+  0.7-    080910 J47  0.1-  0.6-
    080728 A13  1.0-  0.1+    080825 046  0.2+  0.2+    080910 J29  1.1-  0.1-
    080728 A13  0.7-  0.1-    080825 046  0.3+  0.0     080910 J29  0.1-  0.0
    080728 A13  0.3-  0.0     080825 046  0.3+  0.1+    080911 J29  1.0-  0.3+
    080728 246  0.2-  0.3-    080825 046  0.2+  0.1+    080911 900  0.6+  0.2-
    080728 246  0.3-  0.2+    080825 046  0.1+  0.4-    080911 900  0.4-  0.6-
    080729 246  0.0   0.1-    080826 H45  0.3+  0.1+    080912 J47  0.4+  0.3+
    080729 246  0.1+  0.1-    080826 H45  0.2-  0.0     080912 J28  0.8-  0.5+
    080729 246  0.4+  0.4+    080826 H45  0.5+  0.1+    080912 J47  0.1+  0.7-
    080729 246  0.7+  0.0     080826 H45  0.3-  0.1-    080912 J47  0.3+  0.0
    080729 246  0.2+  0.5-    080826 H45  0.7-  0.1+    080912 J47  0.2+  0.1+
    080729 246  0.3-  0.1+    080826 104  0.4+  0.0
    080729 246  0.1+  0.1-    080826 104  0.7+  0.0
    
         The "original" and "future" barycentric values of 1/a are +0.001193
    and +0.001252 (+/- 0.000033) AU^-1, respectively.
    
    Brian G. Marsden             (C) Copyright 2008 MPC           M.P.E.C. 2008-R70
    

    Read MPEC 2008-R69 Read MPEC 2008-R71


    MPEC number:

    Enter an MPEC number in one of the following forms:

    • 1997-B01 (the full form)
    • J97B01 (the packed version of the full form)
    • B01 (the abbreviated form)